Skip Page Navigation
NASA JPL Caltech
NASA Logo - Jet Propulsion Laboratory + View the NASA Portal
+ Center for Near-Earth Object Studies
JPL Home Earth Solar System Stars & Galaxies Technology
JPL Solar System Dynamics
BODIES ORBITS EPHEMERIDES TOOLS PHYSICAL DATA DISCOVERY FAQ SITE MAP
JPL Small-Body Database Browser
Search: [ help ]  
135437 (2001 UV159)
Classification: Main-belt Asteroid          SPK-ID: 2135437
Ephemeris | Orbit Diagram | Orbital Elements | Mission Design | Physical Parameters | Discovery Circumstances ]

[ show orbit diagram ]
Orbital Elements at Epoch 2459200.5 (2020-Dec-17.0) TDB
Reference: JPL 20 (heliocentric ecliptic J2000)
 Element Value Uncertainty (1-sigma)   Units 
e .02492602023801723 4.9733e-08  
a 2.687944147656725 1.7278e-08 au
q 2.620944397433573 1.2969e-07 au
i 1.681103768106083 5.8288e-06 deg
node 180.8355503527338 0.00014645 deg
peri 321.776453181698 0.00017987 deg
M 37.5196416467743 0.00010463 deg
tp 2459032.741332317396
(2020-Jul-02.24133232)
0.00046744 TDB
period 1609.640116883405
4.41
1.552e-05
4.249e-08
d
yr
n .2236524774848642 2.1564e-09 deg/d
Q 2.754943897879877 1.7708e-08 au
  Orbit Determination Parameters
   # obs. used (total)      488  
   data-arc span      10391 days (28.45 yr)  
   first obs. used      1992-11-18  
   last obs. used      2021-05-01  
   planetary ephem.      DE441  
   SB-pert. ephem.      SB441-N16  
   condition code      0  
   norm. resid. RMS      .5664  
   source      ORB  
   producer      Otto Matic  
   solution date      2021-May-04 09:21:27  

Additional Information
 Earth MOID = 1.63261 au 
 Jupiter MOID = 2.22007 au 
 T_jup = 3.372 
[ show covariance matrix ]

Ephemeris | Orbit Diagram | Orbital Elements | Mission Design | Physical Parameters | Discovery Circumstances ]

Physical Parameter Table
Parameter Symbol Value Units Sigma Reference Notes
absolute magnitude H 16.0   n/a MPO459639  

135437 (2001 UV159)          Discovered 2001-Oct-23 by LINEAR at Socorro
Reference: 20060907/Numbers.arcLast Updated: 2006-09-10
Ephemeris | Orbit Diagram | Orbital Elements | Mission Design | Physical Parameters | Discovery Circumstances ]
ABOUT SSD CREDITS/AWARDS PRIVACY/COPYRIGHT GLOSSARY LINKS
FirstGov 2021-Jun-21 04:31 UT
(server date/time)  
NASA Home Page
Site Manager:   Ryan S. Park
Webmaster  Alan B. Chamberlin